Location: Casilda
(33.0440°S, 61.1680°W)
Time: 17:08:24
(UTC-03:00)

ISS - Pass Details

Date: 22 May 2022
Orbit: 414 x 421 km, 51.6° (Epoch: 25 May)

Event Time Altitude Azimuth Distance (km) Brightness Sun altitude
Exits shadow 05:48:52 28° 112° (ESE) 838 -1.8 -25.8°
Drops below altitude 10° 05:50:41 10° 125° (SE) 1,517 -0.4 -25.4°
Sets 05:52:50 0° 129° (SE) 2,390 0.7 -24.9°
